Lexington Weather

Lexington, Massachusetts, USA

56°F
10/22/2020 8:29pm 
  • Lexington Conditions: Mostly cloudy
  • Temperature: 55.8°F / 13.2°C 
  • Dew Point: 54.3°F 
  • Relative Humidity: 95
  • Wind: Calm, 10-min avg: Calm, gust: None
  • Barometer: 30.22 in Steady
  • Visibility: 7 miles
  • Rain Today: 0.00 in
  •   
Southeast Middlesex County - Special Weather Statement
 - SEE ALL NEARBY ALERTS -

Regional Weather Roundup
for Boston / Norton, MA

        
000
ASUS41 KBOX 190704
RWRBOX

REGIONAL WEATHER ROUNDUP
NATIONAL WEATHER SERVICE BOSTON/NORTON MA
300 AM EDT MON OCT 19 2020

NOTE:  "FAIR" INDICATES FEW OR NO CLOUDS BELOW 12,000 FEET WITH NO 
SIGNIFICANT WEATHER AND/OR OBSTRUCTIONS TO VISIBILITY.

MAZALL-190800-
EASTERN MASSACHUSETTS
  
CITY           SKY/WX    TMP DP  RH WIND       PRES   REMARKS
BOSTON         PTCLDY    45  41  86 CALM      30.40F                  
BEVERLY        CLEAR     39  37  92 CALM      30.39F                  
LAWRENCE       CLEAR     40  38  93 CALM      30.42F FOG              
BEDFORD        CLEAR     35  34  96 NW3       30.40S                  
BLUE HILL        N/A     47  42  83 SE7       30.37F                  
NORWOOD        FOG       36  33  89 CALM      30.40F VSB 1/4          
MARSHFIELD     CLOUDY    41  41 100 CALM      30.40S                  
PLYMOUTH       CLEAR     39  37  92 CALM      30.39F                  
TAUNTON        CLEAR     35  33  92 CALM      30.39F FOG              
NEW BEDFORD    CLEAR     38  36  92 CALM      30.39F                  
$$

MAZALL-190800-
CAPE COD AND THE ISLANDS
  
CITY           SKY/WX    TMP DP  RH WIND       PRES   REMARKS
FALMOUTH       NOT AVBL                                               
HYANNIS        CLEAR     39  38  96 CALM      30.38F                  
CHATHAM        CLEAR     44  41  89 NW3       30.40F                  
PROVINCETOWN   CLEAR     36  34  92 CALM      30.40F                  
NANTUCKET      CLEAR    N/A N/A N/A N5        30.39S                  
MARTHAS VNYRD  MOCLDY    44  41  89 NE3       30.38F                  
$$
 
MAZALL-190800-
CENTRAL AND WESTERN MASSACHUSETTS
  
CITY           SKY/WX    TMP DP  RH WIND       PRES   REMARKS
WORCESTER      CLEAR     42  39  89 SW3       30.38S                  
FITCHBURG      CLEAR     38  36  92 CALM      30.41S                  
ORANGE         CLEAR     35  35 100 CALM      30.38F                  
SPRINGFIELD    CLEAR     37  36  96 CALM      30.36F                  
WESTFIELD      CLEAR     38  38 100 CALM      30.37F FOG              
NORTH ADAMS    CLEAR     49  41  74 E6        30.35F                  
PITTSFIELD     PTCLDY    44  40  85 N5        30.34F                  
$$
 
RIZALL-190800-
RHODE ISLAND
  
CITY           SKY/WX    TMP DP  RH WIND       PRES   REMARKS
PROVIDENCE     CLEAR     42  40  92 CALM      30.39F                  
NEWPORT        CLEAR     45  43  93 CALM      30.37F                  
BLOCK ISLAND   CLEAR     50  45  83 CALM      30.37F                  
SMITHFIELD     CLEAR     38  38 100 N3          N/A                   
WESTERLY       CLEAR     43  40  89 N6        30.38F                  
$$
 
CTZALL-190800-
CONNECTICUT
  
CITY           SKY/WX    TMP DP  RH WIND       PRES   REMARKS
BRADLEY INTL   PTCLDY    39  37  92 CALM      30.36F                  
HARTFORD       FOG       43  41  93 CALM      30.36F VSB 3/4          
BRIDGEPORT     PTCLDY    51  47  86 NE5       30.36F                  
DANBURY        PTCLDY    40  38  93 CALM      30.37F                  
GROTON         PTCLDY    43  41  93 N5        30.38S                  
NEW HAVEN      PTCLDY    47  45  93 CALM      30.35F                  
CHESTER        FAIR      43  43 100 CALM      30.36F                  
MERIDEN        PTCLDY    42  40  92 NW3       30.36F                  
WILLIMANTIC    CLEAR     37  35  92 CALM      30.39F                  
OXFORD         PTCLDY    44  44 100 E5        30.36F                  
$$

MEZ002-015-021-024-NHZ003-005-008-011-012-014-VTZ005-008-190800-
NORTHERN NEW ENGLAND
  
CITY           SKY/WX    TMP DP  RH WIND       PRES   REMARKS
PORTLAND ME    MOCLDY    37  37 100 W5        30.41S                  
BANGOR ME      MOCLDY    35  34  96 CALM      30.41F                  
CONCORD NH     PTCLDY    37  35  92 CALM      30.40S                  
MANCHESTER NH  MOCLDY    40  36  86 CALM      30.39S                  
NASHUA NH      CLEAR     35  35 100 CALM      30.41S                  
PORTSMOUTH NH  PTCLDY    39  38  95 NW6       30.39                   
JAFFREY NH     CLEAR     36  34  92 CALM      30.38F                  
KEENE NH       CLEAR     37  37 100 CALM      30.38F FOG              
BURLINGTON VT  CLOUDY    55  39  54 S24G36    30.25F                  
MT. WASHINGTON MOCLDY    32  12  43 SW46        N/A  WCI  15          
$$

NYZ052-076-190800-
EASTERN NEW YORK
  
CITY           SKY/WX    TMP DP  RH WIND       PRES   REMARKS
ALBANY         PTCLDY    48  43  82 SE6       30.33F                  
NEW YORK CITY  MOCLDY    55  46  71 CALM      30.35F                  
$$
 
ANZALL-190800-
MARINE OBSERVATIONS
  
STATION/POSITION TIME  TEMP    WIND        PRES    VSBY  WAVE
                       AIR SEA DIR/SP/G                  HT/PER
                 (UTC) (F)     (DEG/KT/KT) (MB)    (MI)  (FT/S)
BOSTON BUOY      0650   54 57  270/  4/  4 1028.5R         2/ 5
BUZZARDS BAY     0600           30/  8/  8 1030.5F
NANTUCKET SOUND  0650      61  220/  2/  4   N/A           2/ 6
MASS BAY-STELLWA 0604   55 58  200/  4/  6 1028.8F  1 7/8  3/ 5
ISLE OF SHOALS   0600   53     290/  8/  9 1029.1F
S OF BLOCK IS    0626      63                N/A           3/ 8
$$

......................KEY.........................
  SKY/WX - SKY CONDITION/PRESENT WEATHER
  TMP    - TEMPERATURE IN FAHRENHEIT
  DWPT   - DEWPOINT IN FAHRENHEIT
  RH     - RELATIVE HUMIDITY IN PERCENT
  WIND   - DIRECTION AND SPEED IN MPH
  PRES   - MEAN SEA LEVEL PRESSURE IN INCHES OF HG
  WCI    - WIND CHILL INDEX
  VSB    - VISIBILITY IN MILES
  HX     - HEAT INDEX
  TC     - TEMPERATURE IN CELSIUS
  VRB    - VARIABLE WIND DIRECTION
  N/A    - NOT AVAILABLE
  
      

Other recent Regional Weather Roundups

Thu Oct 22, 8:04pm

Thu Oct 22, 7:05pm

Thu Oct 22, 6:04pm

Thu Oct 22, 5:04pm

Thu Oct 22, 4:05pm

Thu Oct 22, 3:04pm

Thu Oct 22, 2:05pm

Thu Oct 22, 1:04pm

Thu Oct 22, 12:04pm

Thu Oct 22, 11:04am

Thu Oct 22, 10:05am

Thu Oct 22, 9:04am

Thu Oct 22, 8:05am

Thu Oct 22, 7:04am

Thu Oct 22, 6:04am

Thu Oct 22, 5:04am

Thu Oct 22, 4:04am

Thu Oct 22, 3:04am

Thu Oct 22, 2:04am

Thu Oct 22, 1:04am

Thu Oct 22, 12:04am

Wed Oct 21, 11:05pm

Wed Oct 21, 10:04pm

Wed Oct 21, 9:04pm

Wed Oct 21, 8:04pm

Wed Oct 21, 7:04pm

Wed Oct 21, 6:04pm

Wed Oct 21, 5:05pm

Wed Oct 21, 4:04pm

Wed Oct 21, 3:04pm

Wed Oct 21, 2:05pm

Wed Oct 21, 1:04pm

Wed Oct 21, 12:04pm

Wed Oct 21, 11:04am

Wed Oct 21, 10:04am

Wed Oct 21, 9:04am

Wed Oct 21, 8:04am

Wed Oct 21, 7:04am

Wed Oct 21, 6:04am

Wed Oct 21, 5:04am

Wed Oct 21, 4:04am

Wed Oct 21, 3:04am

Wed Oct 21, 2:04am

Wed Oct 21, 1:04am

Wed Oct 21, 12:04am

Tue Oct 20, 11:05pm

Tue Oct 20, 10:04pm

Tue Oct 20, 9:04pm

Tue Oct 20, 8:05pm

Tue Oct 20, 7:04pm

Tue Oct 20, 6:04pm

Tue Oct 20, 5:05pm

Tue Oct 20, 4:04pm

Tue Oct 20, 3:05pm

Tue Oct 20, 2:07pm

Tue Oct 20, 1:04pm

Tue Oct 20, 12:04pm

Tue Oct 20, 11:04am

Tue Oct 20, 10:05am

Tue Oct 20, 9:04am

Tue Oct 20, 8:04am

Tue Oct 20, 7:04am

Tue Oct 20, 6:04am

Tue Oct 20, 5:04am

Tue Oct 20, 4:04am

Tue Oct 20, 3:04am

Tue Oct 20, 2:04am

Tue Oct 20, 1:04am

Tue Oct 20, 12:04am

Mon Oct 19, 11:04pm

Mon Oct 19, 10:04pm

Mon Oct 19, 9:04pm

Mon Oct 19, 8:04pm

Mon Oct 19, 7:04pm

Mon Oct 19, 6:04pm

Mon Oct 19, 5:04pm

Mon Oct 19, 4:04pm

Mon Oct 19, 3:04pm

Mon Oct 19, 2:04pm

Mon Oct 19, 1:05pm

Mon Oct 19, 12:04pm

Mon Oct 19, 11:04am

Mon Oct 19, 10:04am

Mon Oct 19, 9:04am

Mon Oct 19, 8:04am

Mon Oct 19, 7:04am

Mon Oct 19, 6:04am

Mon Oct 19, 5:04am

Mon Oct 19, 4:04am

Mon Oct 19, 2:04am

Mon Oct 19, 1:04am

Mon Oct 19, 12:05am

Sun Oct 18, 11:04pm

Sun Oct 18, 10:04pm

Sun Oct 18, 9:04pm

Sun Oct 18, 8:04pm

Sun Oct 18, 7:05pm

Sun Oct 18, 6:04pm

Sun Oct 18, 5:05pm

Sun Oct 18, 4:05pm

Sun Oct 18, 3:04pm

Sun Oct 18, 2:05pm

Sun Oct 18, 1:04pm

Sun Oct 18, 12:04pm

Sun Oct 18, 11:04am

Sun Oct 18, 10:04am

Sun Oct 18, 9:04am

Sun Oct 18, 8:04am

Sun Oct 18, 7:04am

Sun Oct 18, 6:04am

Sun Oct 18, 5:04am

Sun Oct 18, 4:04am

Sun Oct 18, 3:04am

Sun Oct 18, 2:04am

Sun Oct 18, 1:04am

Sun Oct 18, 12:04am

Sat Oct 17, 11:05pm

Sat Oct 17, 10:04pm

Sat Oct 17, 9:04pm

Sat Oct 17, 8:04pm

Sat Oct 17, 7:04pm

Sat Oct 17, 6:04pm

Sat Oct 17, 5:05pm

Sat Oct 17, 4:04pm

Sat Oct 17, 3:04pm

Sat Oct 17, 2:05pm

Sat Oct 17, 1:05pm

Sat Oct 17, 12:04pm

Sat Oct 17, 11:05am

Sat Oct 17, 10:04am

Sat Oct 17, 9:04am

Sat Oct 17, 8:04am

Sat Oct 17, 7:04am

Sat Oct 17, 6:04am

Sat Oct 17, 5:04am

Sat Oct 17, 4:04am

Sat Oct 17, 3:04am

Sat Oct 17, 2:04am

Sat Oct 17, 1:05am

Sat Oct 17, 12:04am

Fri Oct 16, 11:05pm

Fri Oct 16, 10:04pm

Fri Oct 16, 9:05pm

Fri Oct 16, 8:04pm

Fri Oct 16, 7:05pm

Fri Oct 16, 6:04pm

Fri Oct 16, 5:04pm

Fri Oct 16, 4:05pm

Fri Oct 16, 3:04pm

Fri Oct 16, 2:04pm

Fri Oct 16, 1:04pm

Fri Oct 16, 12:04pm

Fri Oct 16, 11:05am

Fri Oct 16, 10:04am

Fri Oct 16, 9:04am

Fri Oct 16, 8:04am

Fri Oct 16, 7:04am

Fri Oct 16, 6:04am

Fri Oct 16, 5:04am

Fri Oct 16, 4:04am

Fri Oct 16, 3:04am

Fri Oct 16, 2:04am

Fri Oct 16, 1:04am

Fri Oct 16, 12:04am

Thu Oct 15, 11:04pm

Thu Oct 15, 10:04pm

Thu Oct 15, 9:05pm

Meta data:

ID: 6eaa07e1-8a2d-47e9-9596-db33812215d9
Link: https://api.weather.gov/products/6eaa07e1-8a2d-47e9-9596-db33812215d9